Date String (YYYY-MM-DD hh:mm:ss) UTC,Instrument flags,absolute air pressure of the measurement (hPa),sample flow rate (lpm),inlet stack bypass flow (lpm),air temperature of the measurement (°C),ambient temperature measured by the external sensor (°C),aerosol sample conditioner tube jacket temperature (°C),OPC LED temperature (°C),internal box temperature (°C),relative humidity of the measurement (%),span deviation,mass concentration of particles derived from Lorenz-Mie calculation of OPC scattering (μg/m³),mass concentration of particles derived from Lorenz-Mie calculation of OPC scattering (μg/m³),mass concentration of particles derived from Lorenz-Mie calculation of OPC scattering (μg/m³)
DateTimeUTC,F1_M11,P_M11,Q1_M11,Q2_M11,T1_M11,T2_M11,T3_M11,T4_M11,T5_M11,U1_M11,ZSPAN_M11,X0_M11,X2_M11,X1_M11
2023-11-08 13:00:00,SystemResetWarning,0827.6,4.99,000.00,026.6,025.5,000.0,035.0,028.0,16.0,0000.0,0009.69,0003.66,0002.77
2023-11-08 13:01:00,SystemResetWarning,0827.7,5.00,000.00,026.6,025.5,000.0,035.0,028.1,15.8,0000.0,0010.62,0003.66,0002.78
2023-11-08 13:02:00,SystemResetWarning,0827.7,5.01,000.00,026.6,025.5,000.0,035.0,028.0,15.9,0000.0,0011.28,0003.66,0002.79
2023-11-08 13:03:00,SystemResetWarning,0827.7,5.00,000.00,026.6,025.5,000.0,035.0,028.0,16.0,0000.0,0011.38,0003.67,0002.81
2023-11-08 13:04:00,SystemResetWarning,0827.7,5.00,000.00,026.6,025.5,000.0,035.0,028.0,16.0,0000.0,0011.38,0003.66,0002.84
2023-11-08 13:05:00,SystemResetWarning,0827.7,5.00,000.00,026.6,025.5,000.0,035.0,028.0,16.0,0000.0,0010.90,0003.64,0002.87
2023-11-08 13:06:00,SystemResetWarning,0827.7,5.00,000.00,026.6,025.5,000.0,035.0,028.0,16.0,0000.0,0011.04,0003.67,0002.86
2023-11-08 13:07:00,SystemResetWarning,0827.8,5.00,000.00,026.6,025.5,000.0,035.0,028.0,16.0,0000.0,0010.70,0003.68,0002.87
2023-11-08 13:08:00,SystemResetWarning,0827.8,5.00,000.00,026.6,025.5,000.0,035.0,028.0,16.1,0000.0,0010.80,0003.67,0002.88
2023-11-08 13:09:00,SystemResetWarning,0827.8,5.00,000.00,026.6,025.5,000.0,035.0,028.0,16.1,0000.0,0010.78,0003.68,0002.90
2023-11-08 13:10:00,SystemResetWarning,0827.9,5.00,000.00,026.6,025.5,000.0,035.0,028.0,16.1,0000.0,0010.59,0003.71,0002.92
2023-11-08 13:11:00,SystemResetWarning,0828.0,5.00,000.00,026.6,025.5,000.0,035.0,028.0,15.9,0000.0,0010.51,0003.69,0002.94
2023-11-08 13:12:00,SystemResetWarning,0828.1,5.00,000.00,026.6,025.6,000.0,035.0,028.0,15.8,0000.0,0009.64,0003.69,0002.96
2023-11-08 13:13:00,SystemResetWarning,0828.0,4.99,000.00,026.6,025.5,000.0,035.0,028.1,15.9,0000.0,0009.11,0003.74,0002.99
2023-11-08 13:14:00,SystemResetWarning,0827.9,5.00,000.00,026.6,025.6,000.0,035.0,028.0,15.9,0000.0,0008.84,0003.75,0003.00
2023-11-08 13:15:00,SystemResetWarning,0827.9,5.01,000.00,026.6,025.6,000.0,035.0,028.1,15.9,0000.0,0008.35,0003.78,0003.01
2023-11-08 13:16:00,SystemResetWarning,0827.9,5.01,000.00,026.6,025.6,000.0,035.0,028.0,16.0,0000.0,0008.47,0003.82,0003.03
2023-11-08 13:17:00,SystemResetWarning,0827.9,5.00,000.00,026.6,025.6,000.0,035.0,028.0,16.0,0000.0,0008.83,0003.86,0003.06
2023-11-08 13:18:00,SystemResetWarning,0827.8,5.00,000.00,026.6,025.6,000.0,035.0,028.1,15.8,0000.0,0008.65,0003.90,0003.07
2023-11-08 13:19:00,SystemResetWarning,0827.8,5.00,000.00,026.6,025.6,000.0,035.0,028.0,15.7,0000.0,0008.63,0003.95,0003.09
2023-11-08 13:20:00,SystemResetWarning,0827.8,4.99,000.00,026.6,025.6,000.0,035.0,028.0,15.7,0000.0,0008.65,0003.96,0003.10
2023-11-08 13:21:00,SystemResetWarning,0827.8,5.00,000.00,026.6,025.6,000.0,035.0,028.0,15.7,0000.0,0008.66,0003.98,0003.11
2023-11-08 13:22:00,SystemResetWarning,0827.8,5.00,000.00,026.6,025.6,000.0,035.0,028.0,15.7,0000.0,0008.71,0004.02,0003.13
2023-11-08 13:23:00,SystemResetWarning,0827.7,5.00,000.00,026.6,025.6,000.0,035.0,028.1,15.7,0000.0,0008.65,0004.03,0003.14
2023-11-08 13:24:00,SystemResetWarning,0827.8,5.00,000.00,026.6,025.6,000.0,035.0,028.1,15.7,0000.0,0008.20,0004.01,0003.16
2023-11-08 13:25:00,SystemResetWarning,0827.9,5.00,000.00,026.6,025.6,000.0,035.0,028.1,15.6,0000.0,0008.11,0004.02,0003.18
2023-11-08 13:26:00,SystemResetWarning,0828.0,5.01,000.00,026.6,025.6,000.0,035.0,028.1,15.6,0000.0,0008.30,0004.05,0003.20
2023-11-08 13:27:00,SystemResetWarning,0828.0,5.00,000.00,026.6,025.6,000.0,035.0,028.0,15.6,0000.0,0008.49,0004.10,0003.22
2023-11-08 13:28:00,SystemResetWarning,0828.0,4.99,000.00,026.6,025.6,000.0,035.0,028.0,15.6,0000.0,0008.12,0004.10,0003.25
2023-11-08 13:29:00,SystemResetWarning,0828.0,5.00,000.00,026.6,025.6,000.0,035.0,028.0,15.6,0000.0,0008.23,0004.10,0003.26
2023-11-08 13:30:00,SystemResetWarning,0828.0,4.99,000.00,026.6,025.6,000.0,035.0,028.0,15.6,0000.0,0008.86,0004.06,0003.28
2023-11-08 13:31:00,SystemResetWarning,0828.0,5.00,000.00,026.6,025.6,000.0,035.0,028.1,15.6,0000.0,0008.96,0004.06,0003.29
2023-11-08 13:32:00,SystemResetWarning,0828.1,5.00,000.00,026.6,025.6,000.0,035.0,028.0,15.5,0000.0,0008.94,0004.04,0003.29
2023-11-08 13:33:00,SystemResetWarning,0828.1,5.00,000.00,026.6,025.6,000.0,035.0,028.0,15.4,0000.0,0009.75,0004.02,0003.30
2023-11-08 13:34:00,SystemResetWarning,0828.1,5.00,000.00,026.6,025.6,000.0,035.0,028.1,15.4,0000.0,0009.75,0004.03,0003.31
2023-11-08 13:35:00,SystemResetWarning,0828.1,5.01,000.00,026.6,025.6,000.0,035.0,028.1,15.5,0000.0,0009.71,0004.04,0003.32
2023-11-08 13:36:00,SystemResetWarning,0828.1,5.00,000.00,026.6,025.6,000.0,035.0,028.0,15.7,0000.0,0009.78,0004.04,0003.32
2023-11-08 13:37:00,SystemResetWarning,0828.1,4.99,000.00,026.6,025.6,000.0,035.0,028.0,15.9,0000.0,0009.76,0004.03,0003.31
2023-11-08 13:38:00,SystemResetWarning,0828.0,5.00,000.00,026.6,025.6,000.0,035.0,028.0,15.8,0000.0,0010.03,0003.98,0003.31
2023-11-08 13:39:00,SystemResetWarning,0828.1,5.01,000.00,026.6,025.6,000.0,035.0,028.0,15.7,0000.0,0010.87,0004.00,0003.31
2023-11-08 13:40:00,SystemResetWarning,0828.1,5.01,000.00,026.6,025.6,000.0,035.0,028.0,15.5,0000.0,0011.47,0003.97,0003.30
2023-11-08 13:41:00,SystemResetWarning,0828.1,5.00,000.00,026.6,025.6,000.0,035.0,028.0,15.5,0000.0,0011.01,0004.02,0003.35
2023-11-08 13:42:00,SystemResetWarning,0828.2,5.00,000.00,026.6,025.6,000.0,035.0,028.0,15.5,0000.0,0010.86,0004.05,0003.43
2023-11-08 13:43:00,SystemResetWarning,0828.2,4.99,000.00,026.6,025.6,000.0,035.0,028.0,15.5,0000.0,0010.98,0004.13,0003.50
2023-11-08 13:44:00,SystemResetWarning,0828.2,4.99,000.00,026.6,025.6,000.0,035.0,028.0,15.5,0000.0,0010.33,0004.21,0003.57
2023-11-08 13:45:00,SystemResetWarning,0828.2,4.99,000.00,026.6,025.6,000.0,035.0,028.0,15.5,0000.0,0010.40,0004.27,0003.63
2023-11-08 13:46:00,SystemResetWarning,0828.2,5.00,000.00,026.6,025.6,000.0,035.0,028.0,15.5,0000.0,0010.56,0004.35,0003.71
2023-11-08 13:47:00,SystemResetWarning,0828.2,5.01,000.00,026.6,025.6,000.0,035.0,028.0,15.6,0000.0,0010.66,0004.40,0003.77
2023-11-08 13:48:00,SystemResetWarning,0828.2,5.00,000.00,026.6,025.6,000.0,035.0,028.0,15.6,0000.0,0010.54,0004.42,0003.81
2023-11-08 13:49:00,SystemResetWarning,0828.2,5.01,000.00,026.6,025.6,000.0,035.0,028.0,15.5,0000.0,0010.00,0004.46,0003.86
2023-11-08 13:50:00,SystemResetWarning,0828.2,5.01,000.00,026.6,025.6,000.0,035.0,028.0,15.6,0000.0,0009.19,0004.48,0003.91
2023-11-08 13:51:00,SystemResetWarning,0828.1,5.00,000.00,026.6,025.6,000.0,035.0,028.0,15.6,0000.0,0008.74,0004.56,0003.97
2023-11-08 13:52:00,SystemResetWarning,0828.2,4.99,000.00,026.6,025.6,000.0,035.0,028.0,15.6,0000.0,0008.64,0004.56,0003.95
2023-11-08 13:53:00,SystemResetWarning,0828.2,5.00,000.00,026.6,025.6,000.0,035.0,028.0,15.5,0000.0,0008.73,0004.56,0003.91
2023-11-08 13:54:00,SystemResetWarning,0828.3,5.01,000.00,026.6,025.6,000.0,035.0,028.0,15.6,0000.0,0008.63,0004.51,0003.87
2023-11-08 13:55:00,SystemResetWarning,0828.4,5.00,000.00,026.6,025.6,000.0,035.0,028.0,15.6,0000.0,0008.70,0004.47,0003.82
2023-11-08 13:56:00,SystemResetWarning,0828.4,5.00,000.00,026.6,025.6,000.0,035.0,028.0,15.7,0000.0,0009.44,0004.45,0003.78
2023-11-08 13:57:00,SystemResetWarning,0828.4,4.99,000.00,026.6,025.6,000.0,035.0,028.0,15.7,0000.0,0009.50,0004.37,0003.72
2023-11-08 13:58:00,SystemResetWarning,0828.4,5.00,000.00,026.5,025.5,000.0,034.9,028.0,15.7,0000.0,0009.64,0004.32,0003.68
2023-11-08 13:59:00,SystemResetWarning,0828.4,5.00,000.00,026.5,025.5,000.0,034.9,028.0,15.7,0000.0,0009.84,0004.28,0003.66
